Location: D�derode
(51.8092°N, 10.1065°E)
Time: 04:11:11
(UTC+00:00)

Cosmos 1869 Rocket - Pass Details

Date: 16 April 2021
Orbit: 604 x 634 km, 82.5° (Epoch: 11 May)

Event Time Altitude Azimuth Distance (km) Brightness Sun altitude
Rises 23:03:36 0° 359° (N) 2,910 8.3 -27.6°
Reaches altitude 10° 23:06:23 10° 16° (NNE) 1,992 7.0 -27.7°
Maximum altitude 23:09:38 20° 64° (ENE) 1,439 5.6 -27.7°
Enters shadow 23:09:58 20° 70° (ENE) 1,444 5.6 -27.7°
